Temperature
25 25 26 26 26 26 25 25 24 25 25 26 26 26 25 25 24 23 22 21 20 19 18 18 18 17 17 17 17 17 16 16 16 15 15 15 14 14 14 13 13 13 13 13
25 26 26 26 26 26 26 26 25 25 25 26 26 26 25 24 23 23 22 21 20 19 19 18 18 17 17 17 17 16 16 16 16 15 15 15 14 14 13 13 13 13 12 12
24 26 26 25 26 26 26 26 26 25 25 26 25 25 25 24 23 22 22 21 20 20 19 18 18 17 17 17 16 16 16 16 15 15 15 15 14 14 13 13 13 12 12 12
24 25 23 25 27 27 26 26 26 26 26 26 25 25 24 24 23 22 22 21 21 20 19 19 18 18 17 17 16 16 16 15 15 15 15 14 14 14 13 13 12 12 12 12
24 23 24 26 26 26 26 25 26 26 25 25 25 24 24 23 23 22 22 21 21 20 20 19 19 18 17 17 16 16 16 15 15 15 15 14 14 14 13 13 12 12 12 12
23 23 23 24 26 26 25 24 25 25 25 24 24 23 22 22 22 22 21 21 20 20 20 19 19 18 17 17 16 16 16 15 15 15 15 14 14 13 13 12 12 12 12 11
22 23 23 24 25 25 23 23 24 24 24 23 23 22 22 22 21 21 21 20 20 20 19 19 18 18 17 17 16 16 16 15 15 14 14 14 13 13 13 12 12 12 11 11
23 22 22 24 24 24 23 24 24 23 23 22 22 21 21 21 21 20 20 19 19 19 19 18 18 17 17 17 16 16 15 15 14 14 14 13 13 13 12 12 12 11 11 11
24 23 23 23 23 23 23 23 22 22 22 21 21 20 20 20 19 19 19 19 18 18 18 18 17 17 17 16 16 15 15 15 14 14 13 13 13 12 12 12 11 11 11 10
24 24 23 22 22 22 21 21 21 21 21 20 20 19 19 19 18 18 18 18 18 17 17 17 17 16 16 16 16 15 15 14 14 13 13 12 12 12 12 12 11 11 10 10
23 23 22 21 21 21 20 20 20 20 20 19 19 19 18 18 18 17 17 17 17 17 16 16 16 16 15 15 15 15 14 14 13 13 12 12 12 12 12 12 11 11 11 10
21 21 22 21 20 20 19 19 19 19 19 18 18 18 17 17 17 17 16 16 16 16 15 15 15 15 15 15 14 14 14 13 13 13 12 12 12 12 11 11 11 11 11 10
21 20 20 19 19 19 18 18 18 18 18 17 17 17 16 16 16 16 16 15 15 15 15 15 14 14 14 14 14 14 13 13 13 12 12 12 11 11 11 11 11 10 10 10
19 19 19 19 18 18 18 18 17 17 17 17 16 16 16 15 15 15 15 15 14 14 14 14 14 14 14 13 13 13 13 12 12 12 12 11 11 11 11 10 10 10 10 10
18 18 18 18 17 17 17 17 17 16 16 16 15 15 15 15 14 14 14 14 14 13 13 13 13 13 13 13 13 13 12 12 12 12 11 11 11 10 10 10 10 10 10 10
17 17 17 16 16 16 16 16 16 15 15 15 15 14 14 14 14 14 13 13 13 13 13 12 12 12 12 12 12 12 12 11 11 11 11 11 10 10 10 10 10 10 9 9
16 16 16 15 15 15 15 15 15 15 14 14 14 13 13 13 13 13 13 12 12 12 12 12 12 12 12 12 11 11 11 11 11 11 10 10 10 10 10 9 9 9 9 9
15 15 15 15 15 14 14 14 14 14 13 13 13 13 12 12 12 12 12 12 11 11 11 11 11 11 11 11 11 11 10 10 10 10 10 10 10 9 9 9 9 9 9 9
14 14 14 14 14 13 13 13 13 13 13 12 12 12 12 12 11 11 11 11 11 10 10 10 10 10 10 10 10 10 10 9 9 9 9 9 9 9 9 9 8 8 8 8
13 13 13 13 13 13 13 12 12 12 12 12 11 11 11 11 11 10 10 10 10 10 10 10 10 9 9 9 9 9 9 9 8 8 8 8 8 8 8 8 8 8 8 7
12 12 12 12 12 12 12 12 12 11 11 11 11 11 10 10 10 10 10 9 9 9 9 9 9 9 8 8 8 8 8 7 7 7 8 8 7 7 7 7 7 7 7 7
12 12 11 11 11 11 11 11 11 11 10 10 10 10 10 9 9 9 9 9 9 9 9 8 8 8 8 7 7 7 7 7 7 7 7 7 7 6 6 6 6 6 6 6
11 11 11 11 11 10 10 10 10 10 10 9 9 9 9 9 9 8 8 8 8 8 8 7 7 7 7 7 6 6 6 6 6 6 6 6 6 6 5 5 5 5 5 5
10 10 10 10 10 10 9 9 9 9 9 9 8 8 8 8 8 8 8 7 7 7 7 7 7 6 6 6 6 6 5 5 5 5 5 5 5 4 4 4 4 4 4 3
10 9 9 9 9 9 9 9 8 8 8 8 8 8 7 7 7 7 7 7 6 6 6 6 6 6 6 5 5 5 5 5 4 4 4 4 4 4 3 3 3 3 3 3
9 9 9 8 8 8 8 8 8 7 7 7 7 7 7 7 6 6 6 6 6 6 5 5 5 5 5 5 5 4 4 4 4 3 3 3 3 3 2 2 2 2 2 2
8 8 8 8 7 7 7 7 7 7 7 7 6 6 6 6 6 5 5 5 5 5 5 4 4 4 4 4 4 3 3 3 3 3 3 2 2 2 2 2 1 1 1 1
Wind_Speed
7 7 7 7 8 8 9 9 8 7 6 5 2 3 5 8 8 9 11 11 12 11 10 10 10 9 9 8 9 8 7 6 4 4 4 4 3 1 1 1 2 3 3 3
8 9 9 9 10 10 11 11 10 9 8 4 1 2 4 7 8 8 10 11 12 12 11 11 11 11 10 9 9 8 8 7 5 4 4 3 3 2 1 1 1 2 2 3
8 8 8 10 9 10 10 10 9 8 5 2 0 2 3 5 7 7 7 9 11 11 11 11 11 11 10 10 9 9 8 7 6 6 5 4 3 3 2 1 0 1 1 2
7 8 9 3 1 1 2 4 4 3 2 1 1 2 3 4 5 5 6 6 8 10 10 10 10 10 9 9 9 9 8 8 7 7 6 5 4 3 3 2 1 1 1 1
7 8 7 4 1 0 2 3 4 3 1 2 1 2 2 3 4 4 4 5 6 7 9 10 10 10 10 10 9 9 8 8 8 8 7 6 5 4 3 2 2 2 2 2
7 8 7 2 3 3 1 1 3 2 2 2 1 2 2 3 3 3 3 3 4 5 7 8 8 9 9 9 10 9 9 8 8 8 7 7 6 5 4 3 3 3 3 3
9 9 5 3 2 1 1 2 5 5 4 4 2 3 3 3 3 4 4 4 4 3 4 5 7 8 8 8 9 8 8 8 7 7 7 7 6 5 4 4 4 4 4 4
7 8 4 3 1 2 3 4 5 6 6 5 4 4 4 4 4 4 4 4 4 3 3 3 4 6 7 7 6 7 7 7 7 7 7 7 6 5 5 5 5 5 5 5
2 0 4 5 4 5 5 5 5 5 5 4 4 3 4 4 3 3 4 4 4 4 3 3 3 4 5 5 6 6 7 7 6 7 6 6 6 6 5 5 5 5 4 4
3 1 3 4 3 3 4 4 4 4 4 3 3 3 3 3 2 2 3 3 3 4 4 3 3 3 4 4 6 6 7 7 6 6 6 6 5 6 5 5 5 5 5 5
4 2 1 2 2 2 3 3 3 3 3 2 2 2 3 2 2 2 2 2 3 3 3 3 3 3 3 4 5 6 6 6 6 6 6 5 5 5 6 5 6 6 5 4
3 3 2 1 3 3 2 2 2 2 2 2 2 2 3 2 2 2 2 2 2 2 2 2 2 3 3 4 4 5 5 5 4 4 4 5 5 4 7 8 9 10 10 8
3 2 2 2 2 2 1 1 1 1 1 2 2 3 3 2 2 2 2 2 1 1 1 2 1 2 2 4 4 4 4 4 4 4 4 4 4 4 4 6 9 10 11 11
2 1 1 1 1 1 1 1 0 2 3 3 3 3 3 2 2 2 1 1 1 1 0 0 1 0 1 2 3 4 4 4 4 4 4 4 5 5 5 5 5 6 8 12
1 1 1 1 2 1 0 0 1 2 2 2 2 2 2 2 1 1 1 1 1 1 1 1 0 1 0 0 1 3 3 3 3 3 4 4 5 5 5 6 6 5 5 6
1 1 1 1 1 1 1 1 1 1 2 2 2 1 1 1 1 1 2 2 1 0 1 1 1 1 1 0 1 2 2 4 4 3 4 4 4 5 5 5 6 6 6 5
2 3 3 3 2 2 1 1 0 1 1 1 1 1 1 1 2 2 2 1 1 1 2 1 2 1 1 1 2 2 2 3 5 4 4 4 4 5 5 5 6 6 6 6
2 2 2 2 2 2 2 1 0 1 1 1 1 1 1 1 1 1 1 1 1 2 2 2 3 3 2 2 2 2 2 3 3 4 4 4 5 5 5 5 6 6 5 5
2 1 1 1 1 1 1 0 0 0 1 1 1 1 1 1 1 1 1 1 1 1 1 2 3 3 3 3 3 2 2 3 4 4 4 5 5 5 5 5 5 5 5 5
1 2 2 1 0 0 0 0 0 0 0 1 1 0 0 0 1 1 1 1 1 1 2 2 3 3 3 3 4 3 3 4 5 5 4 4 4 5 5 5 5 6 6 6
2 2 2 1 1 0 0 1 0 0 0 0 0 1 1 1 1 1 1 1 1 2 2 2 2 2 3 5 5 4 4 5 5 5 5 4 4 5 5 5 5 5 5 6
2 2 1 1 1 0 0 1 0 0 0 0 0 1 1 2 1 1 1 1 1 2 2 2 2 4 6 7 4 5 5 5 5 5 4 4 5 5 5 5 5 5 5 5
2 1 1 1 0 0 1 1 1 1 1 1 1 1 1 1 1 1 1 1 1 2 2 2 4 7 8 6 5 5 6 6 5 5 4 5 5 5 5 5 5 5 6 6
2 1 1 0 0 0 0 1 1 1 1 1 1 1 1 1 1 1 1 1 2 2 2 3 6 7 8 5 5 5 5 5 4 4 4 5 5 5 5 5 5 6 6 7
1 1 1 0 0 1 1 1 1 2 1 1 1 2 2 1 1 1 2 2 2 3 3 4 7 7 5 4 4 5 5 5 6 6 5 5 5 5 5 5 6 6 6 6
1 1 1 1 1 1 1 0 0 1 1 1 1 1 1 1 1 1 2 2 3 4 4 3 4 5 4 4 5 5 5 6 6 5 5 5 5 5 5 6 7 6 6 6
1 1 1 1 1 1 1 1 1 1 1 1 1 1 2 2 2 2 2 3 3 3 3 3 4 4 4 4 5 5 5 5 5 5 5 5 5 5 6 7 6 6 6 6
Wind_Direction
254 260 263 252 246 240 248 259 265 271 271 268 232 153 151 152 152 158 162 165 167 168 171 173 174 175 175 171 164 163 164 171 171 162 145 133 126 134 93 40 7 15 16 19
261 252 256 256 247 244 246 253 261 268 276 289 312 116 145 155 159 165 171 172 173 175 176 179 180 179 178 173 168 165 168 171 164 155 141 139 146 147 107 54 10 16 9 15
280 268 259 257 249 245 240 243 250 255 262 274 204 143 149 158 167 172 174 176 177 181 181 184 184 181 178 174 168 168 170 166 161 160 161 166 166 148 155 193 153 20 341 355
275 276 265 270 347 195 250 287 294 296 297 231 166 134 133 143 161 173 173 174 180 182 180 183 180 174 170 166 169 173 173 169 167 166 167 166 165 175 191 202 176 192 265 286
279 278 276 276 305 223 256 286 312 303 306 107 128 147 136 101 122 146 164 176 179 179 177 180 176 170 169 172 174 175 174 172 171 169 170 172 178 189 194 190 200 227 240 249
266 274 279 325 42 57 342 286 355 357 38 74 94 182 119 100 106 122 129 144 159 169 171 171 167 164 171 177 177 179 177 175 174 172 173 179 185 191 193 193 208 223 238 245
253 263 274 353 66 119 248 40 36 36 51 69 63 65 71 87 99 107 111 117 121 134 149 155 155 161 177 184 186 177 168 170 173 172 176 182 185 190 193 201 213 229 237 243
242 251 258 68 85 42 41 44 46 43 49 53 54 65 72 84 101 110 111 118 126 129 126 133 150 165 183 190 173 156 158 167 174 177 186 188 182 192 201 205 216 231 238 245
269 52 84 78 62 44 28 29 37 39 43 54 49 60 72 83 92 110 121 128 131 134 139 151 165 175 188 173 151 152 161 172 180 185 187 181 184 197 208 209 218 232 234 239
272 189 112 100 71 56 43 27 32 35 43 56 56 65 73 88 95 101 120 130 134 141 156 170 170 173 176 158 158 165 175 182 189 194 194 194 196 201 208 213 220 229 234 237
267 283 42 72 61 46 43 37 36 42 53 57 74 77 80 84 83 90 97 110 131 153 170 177 171 176 170 162 175 186 191 194 198 199 197 197 201 210 215 219 218 222 230 231
262 303 314 39 58 60 48 28 22 41 54 59 76 89 83 86 79 87 101 98 108 132 158 180 183 178 171 169 185 198 204 205 202 197 196 198 204 224 231 227 228 227 226 229
310 359 22 40 47 51 20 348 14 85 89 86 85 87 92 90 89 85 92 112 136 150 174 193 188 185 181 180 193 212 217 210 199 199 202 206 212 219 238 248 243 242 238 237
26 18 311 314 41 68 1 341 59 92 85 85 90 93 94 85 79 85 87 79 70 66 170 151 133 225 226 191 200 221 228 220 208 205 208 217 223 228 231 235 245 252 246 240
295 281 286 1 90 104 74 145 137 116 100 92 89 95 96 98 91 74 59 59 61 40 16 31 13 305 280 186 228 240 236 230 220 217 219 228 231 231 235 241 245 246 241 238
233 207 220 222 183 159 163 196 187 146 116 97 87 90 95 98 90 67 58 59 57 13 14 15 352 342 2 338 273 267 256 245 241 235 236 238 238 239 241 242 246 246 243 239
206 199 202 220 210 203 209 236 229 131 120 116 102 85 108 100 87 70 60 54 24 19 26 8 355 360 357 313 288 271 268 264 257 251 245 245 246 247 252 254 253 251 248 241
228 222 214 222 209 212 219 219 207 122 137 122 119 119 117 127 124 95 43 36 33 21 13 10 15 357 338 326 315 306 295 283 273 265 261 259 258 258 257 258 260 261 259 255
211 188 188 220 221 229 228 207 183 133 130 147 147 140 116 81 59 38 25 4 349 340 358 21 3 342 339 356 345 321 305 299 296 287 276 274 275 270 266 264 265 265 264 260
171 165 173 173 144 121 216 233 213 179 142 112 103 91 52 23 6 346 350 338 327 326 8 18 350 341 345 351 342 324 314 305 299 296 292 282 278 279 278 278 278 276 273 268
170 164 158 145 119 98 263 253 237 142 53 57 350 303 311 321 318 306 301 301 326 6 6 351 345 346 350 341 327 315 305 298 295 293 294 295 294 293 292 292 293 291 289 287
163 152 144 130 120 66 360 10 14 44 55 31 329 316 319 322 324 323 309 297 5 17 358 344 345 340 332 326 308 297 292 290 290 290 293 296 295 296 297 299 300 302 303 302
150 142 140 142 134 68 37 22 358 31 52 34 5 332 320 325 320 312 319 356 23 3 341 325 321 320 315 308 294 291 289 291 294 297 298 300 301 301 302 304 305 307 307 304
144 136 127 96 68 64 14 7 16 33 40 27 9 348 328 322 343 7 21 13 359 340 322 307 309 310 309 300 296 297 299 304 305 304 305 305 303 302 303 304 305 303 302 302
149 152 154 136 12 27 37 26 19 25 25 16 358 351 345 22 19 356 355 358 349 330 314 311 311 308 302 299 307 313 315 311 309 308 302 297 296 297 299 299 300 300 299 296
93 77 64 31 30 30 5 5 6 355 333 335 349 352 356 9 1 352 340 332 326 321 318 312 309 307 312 320 322 319 313 309 306 303 300 301 302 304 304 304 303 301 299 298
92 86 84 73 43 12 344 332 316 320 335 340 335 337 336 335 331 333 334 332 330 326 325 324 325 325 324 323 321 316 312 310 307 305 304 303 300 299 297 297 296 296 297 297
Height
1497 1494 1493 1495 1496 1497 1501 1502 1507 1505 1503 1497 1494 1496 1498 1502 1505 1509 1512 1516 1519 1522 1525 1528 1531 1534 1537 1539 1541 1543 1545 1546 1548 1549 1550 1550 1551 1551 1551 1551 1551 1551 1550 1549
1497 1492 1491 1493 1492 1493 1495 1495 1497 1498 1498 1492 1493 1495 1497 1500 1503 1507 1510 1513 1516 1519 1522 1525 1528 1531 1534 1536 1538 1540 1542 1544 1545 1546 1547 1548 1548 1548 1549 1549 1549 1548 1548 1547
1501 1491 1491 1498 1488 1487 1488 1488 1491 1496 1494 1490 1492 1494 1496 1499 1502 1504 1507 1510 1513 1516 1519 1522 1525 1528 1530 1533 1535 1537 1539 1541 1542 1543 1544 1545 1546 1546 1546 1546 1546 1546 1546 1545
1498 1498 1510 1491 1478 1480 1485 1486 1485 1486 1487 1489 1491 1493 1495 1498 1500 1502 1505 1508 1510 1513 1516 1520 1523 1525 1528 1530 1532 1534 1536 1537 1539 1540 1541 1542 1543 1543 1543 1544 1543 1543 1543 1542
1500 1504 1497 1485 1480 1480 1485 1488 1484 1485 1486 1488 1490 1492 1494 1497 1498 1500 1503 1505 1508 1510 1513 1517 1519 1522 1525 1527 1529 1531 1532 1534 1535 1536 1538 1539 1539 1540 1540 1540 1541 1541 1540 1540
1499 1506 1506 1492 1481 1480 1484 1492 1485 1485 1486 1488 1489 1494 1496 1496 1497 1499 1501 1503 1506 1508 1511 1514 1516 1519 1521 1523 1525 1526 1528 1530 1532 1533 1534 1535 1536 1537 1537 1537 1537 1537 1537 1537
1500 1502 1494 1485 1482 1482 1495 1496 1487 1487 1487 1489 1491 1494 1496 1495 1497 1498 1500 1502 1504 1506 1509 1511 1513 1516 1518 1520 1522 1523 1525 1527 1528 1529 1530 1531 1532 1533 1534 1534 1534 1534 1534 1534
1493 1499 1499 1485 1484 1487 1490 1488 1488 1489 1490 1491 1492 1493 1494 1495 1496 1497 1499 1501 1503 1505 1507 1509 1511 1513 1515 1517 1519 1521 1522 1523 1524 1526 1527 1528 1528 1529 1530 1530 1530 1530 1530 1530
1485 1490 1486 1485 1486 1488 1488 1489 1490 1491 1491 1492 1493 1494 1494 1495 1496 1497 1498 1500 1501 1503 1505 1507 1508 1510 1512 1514 1516 1517 1518 1520 1521 1522 1523 1524 1524 1525 1526 1526 1526 1526 1526 1526
1481 1481 1483 1485 1487 1488 1489 1490 1490 1491 1492 1492 1493 1494 1494 1495 1496 1497 1498 1499 1500 1502 1503 1505 1506 1508 1510 1511 1512 1514 1515 1516 1517 1518 1519 1520 1520 1521 1521 1521 1521 1522 1522 1521
1481 1482 1484 1485 1486 1487 1488 1489 1490 1491 1491 1492 1493 1493 1494 1494 1495 1496 1497 1498 1499 1500 1501 1502 1504 1505 1506 1508 1509 1510 1511 1512 1513 1514 1515 1515 1516 1516 1516 1517 1517 1517 1517 1517
1482 1483 1483 1484 1485 1486 1487 1488 1489 1490 1490 1491 1492 1492 1493 1493 1494 1495 1496 1497 1498 1499 1499 1500 1501 1502 1503 1504 1505 1506 1507 1508 1509 1510 1510 1511 1511 1511 1511 1512 1512 1512 1512 1512
1480 1481 1483 1484 1485 1486 1486 1487 1488 1489 1489 1490 1491 1491 1492 1492 1493 1494 1495 1495 1496 1497 1498 1498 1499 1500 1500 1501 1502 1503 1504 1504 1505 1506 1506 1506 1506 1506 1506 1506 1506 1506 1506 1505
1479 1480 1482 1483 1484 1484 1485 1486 1487 1487 1488 1489 1489 1490 1491 1491 1492 1492 1493 1494 1495 1495 1496 1496 1497 1497 1498 1498 1499 1499 1500 1501 1501 1501 1501 1501 1501 1501 1501 1500 1500 1499 1499 1499
1477 1479 1480 1481 1482 1483 1484 1485 1485 1486 1487 1488 1488 1489 1489 1490 1490 1491 1492 1492 1493 1493 1493 1494 1494 1494 1495 1495 1495 1496 1496 1496 1497 1497 1497 1497 1496 1496 1496 1495 1494 1493 1493 1492
1476 1477 1478 1479 1480 1482 1482 1483 1484 1484 1485 1486 1486 1487 1488 1488 1489 1490 1490 1490 1490 1490 1491 1491 1491 1491 1491 1491 1491 1492 1492 1492 1492 1492 1492 1492 1491 1491 1490 1490 1488 1487 1486 1486
1474 1475 1476 1478 1479 1480 1481 1481 1482 1483 1483 1484 1484 1485 1486 1486 1487 1487 1488 1488 1488 1489 1489 1488 1488 1488 1488 1488 1488 1488 1488 1488 1488 1488 1487 1487 1486 1486 1485 1484 1483 1482 1481 1480
1471 1473 1474 1475 1476 1477 1479 1480 1480 1481 1481 1482 1482 1483 1484 1484 1484 1485 1485 1486 1486 1486 1486 1486 1486 1485 1485 1485 1484 1484 1483 1483 1483 1482 1482 1481 1481 1480 1479 1478 1477 1476 1474 1474
1469 1470 1472 1473 1474 1475 1477 1477 1478 1479 1479 1480 1480 1481 1481 1482 1483 1483 1483 1483 1483 1483 1483 1483 1483 1482 1482 1481 1481 1480 1479 1479 1478 1478 1477 1476 1475 1474 1473 1472 1471 1470 1468 1467
1467 1469 1470 1471 1472 1473 1474 1475 1476 1477 1477 1478 1478 1479 1479 1480 1480 1480 1481 1480 1480 1480 1480 1480 1479 1479 1478 1478 1477 1476 1475 1474 1473 1473 1472 1471 1470 1469 1467 1466 1465 1463 1462 1460
1466 1467 1468 1469 1470 1471 1472 1473 1474 1475 1475 1476 1476 1477 1477 1478 1478 1478 1478 1478 1478 1478 1477 1477 1476 1476 1475 1474 1473 1472 1471 1470 1469 1468 1467 1465 1464 1463 1461 1460 1458 1457 1455 1453
1465 1466 1467 1468 1468 1469 1470 1471 1472 1472 1473 1473 1474 1474 1475 1475 1475 1475 1475 1475 1475 1474 1474 1473 1473 1472 1471 1470 1469 1468 1466 1465 1464 1463 1462 1460 1459 1457 1455 1454 1452 1450 1448 1446
1463 1464 1465 1466 1467 1468 1468 1469 1470 1470 1471 1471 1471 1472 1472 1472 1472 1472 1472 1472 1471 1471 1470 1469 1469 1468 1467 1465 1464 1463 1462 1461 1459 1458 1456 1455 1453 1451 1449 1447 1445 1443 1441 1439
1461 1463 1464 1465 1466 1466 1467 1467 1468 1468 1469 1469 1469 1470 1470 1469 1469 1469 1469 1469 1468 1468 1467 1466 1465 1464 1462 1461 1459 1458 1457 1456 1454 1453 1451 1449 1447 1445 1443 1441 1439 1437 1434 1432
1460 1461 1462 1463 1464 1465 1465 1466 1466 1466 1467 1467 1467 1467 1467 1467 1467 1467 1466 1466 1465 1464 1463 1462 1461 1459 1458 1456 1455 1454 1452 1451 1449 1447 1445 1443 1441 1439 1437 1435 1433 1430 1428 1425
1459 1459 1460 1461 1462 1463 1463 1464 1464 1464 1464 1464 1464 1465 1465 1464 1464 1464 1463 1462 1462 1461 1459 1458 1457 1456 1454 1452 1451 1449 1447 1445 1444 1442 1440 1438 1436 1434 1431 1429 1426 1424 1422 1419
1457 1457 1458 1459 1460 1461 1461 1461 1462 1462 1462 1462 1462 1462 1462 1461 1461 1461 1460 1459 1458 1457 1456 1455 1453 1452 1450 1448 1446 1444 1442 1440 1439 1437 1435 1433 1430 1428 1426 1423 1421 1418 1415 1413